Wind_Speed
27 26 26 25 24 24 23 22 20 20 20 19 18 18 18 18 17 17 16 16 16 16 15 15 14 13 12 11 10 9 9 9 9 9 8 8 8 8 8 7 7 6
28 27 26 25 25 24 24 23 22 21 21 21 20 18 18 19 19 19 18 17 17 17 16 16 15 14 13 12 11 11 10 10 10 9 9 9 9 8 8 8 7 7
29 28 27 27 26 25 25 24 23 22 21 21 21 19 18 19 20 20 20 19 18 17 17 17 16 16 15 14 13 12 12 11 11 10 9 9 9 9 9 8 8 8
30 29 28 28 26 25 25 24 24 23 22 21 21 20 19 19 20 20 20 20 19 17 17 17 17 16 16 15 14 14 13 13 12 11 10 10 10 10 10 9 9 8
30 29 28 27 27 25 25 25 25 24 23 22 21 21 20 19 20 21 21 21 20 18 18 17 17 17 16 16 16 15 14 14 13 12 11 11 10 11 10 10 10 9
30 29 28 27 27 26 25 25 25 24 23 23 22 21 21 21 21 22 22 21 21 20 19 18 18 18 17 17 17 16 15 14 13 13 13 12 11 11 11 10 11 11
31 30 29 28 27 27 26 25 25 25 24 23 23 22 22 22 22 22 22 22 22 21 20 20 19 19 18 18 17 17 16 15 14 14 14 13 12 12 12 11 11 11
32 31 30 29 28 28 27 26 25 25 24 23 23 23 22 23 23 22 22 22 22 22 21 21 20 20 19 18 18 18 17 16 15 15 15 14 14 14 13 12 12 12
32 31 30 30 30 29 28 27 26 25 25 24 24 23 23 23 24 23 22 22 22 22 22 22 21 21 20 20 19 19 18 18 17 16 16 16 16 15 15 14 13 13
32 31 31 31 31 30 30 29 28 26 26 25 25 24 24 24 24 23 23 23 23 22 23 23 22 21 21 20 20 20 19 19 18 17 17 17 17 16 16 15 15 14
33 32 32 32 32 31 31 30 29 28 27 26 26 26 25 24 24 24 24 24 23 23 23 23 23 23 22 21 21 20 20 19 19 18 18 18 18 17 16 16 16 16
34 33 33 33 33 32 31 31 30 29 28 27 26 26 26 25 24 24 24 24 24 23 23 24 23 23 23 22 21 21 20 20 19 19 19 18 18 18 17 17 17 17
35 35 34 34 33 33 31 31 30 30 29 28 27 26 27 26 26 25 24 24 24 24 23 24 23 23 23 22 22 21 21 20 20 20 20 19 19 18 18 18 18 17
35 35 34 33 33 33 31 30 30 30 29 28 27 27 27 27 27 26 25 24 25 24 24 23 23 23 23 23 22 22 21 21 21 20 20 19 19 19 18 18 18 18
34 33 33 33 32 32 32 31 30 30 29 28 27 27 27 27 27 26 25 25 25 25 24 24 24 24 24 24 23 23 22 22 21 21 21 20 19 19 19 19 19 19
33 32 32 33 33 33 33 31 29 29 29 29 28 27 26 27 27 27 26 26 25 25 25 24 24 24 25 26 26 24 23 22 21 21 21 21 20 19 19 19 19 19
32 32 32 33 34 33 33 32 30 29 29 29 28 27 26 26 26 27 27 26 26 26 26 25 25 25 26 29 29 28 25 22 21 21 21 21 21 20 19 19 19 19
33 32 32 32 33 32 33 32 31 29 29 29 28 27 27 26 26 27 27 26 25 26 26 26 25 25 27 30 32 32 29 25 21 21 21 20 20 20 20 19 20 20
33 32 32 32 32 32 31 32 31 29 29 29 29 27 27 26 26 26 26 26 25 25 26 26 25 25 28 30 32 34 34 30 24 20 21 21 20 20 20 20 19 19
33 33 32 32 32 31 30 31 31 30 29 29 28 27 27 26 26 25 25 26 25 24 24 24 24 25 28 30 32 33 34 34 29 22 19 20 19 19 19 19 19 19
33 33 32 31 31 30 30 30 31 30 29 28 28 28 27 26 26 25 25 26 26 25 24 23 24 25 27 29 32 32 32 34 33 26 19 18 19 18 18 18 18 18
32 32 31 31 31 31 30 30 30 30 29 28 27 26 26 25 25 25 25 25 26 26 25 24 23 24 25 27 29 31 30 32 32 27 21 20 19 19 20 19 19 19
32 32 31 31 31 31 31 30 29 29 28 27 26 26 26 25 25 25 25 25 25 26 26 25 24 25 26 26 27 29 29 31 31 26 22 22 21 20 21 21 21 21
33 32 32 31 32 32 31 30 29 28 28 27 26 26 26 25 24 24 25 25 26 26 26 26 25 27 28 28 28 29 29 30 29 24 21 21 20 20 20 21 22 24
32 32 32 31 32 31 31 30 29 28 27 27 26 26 25 25 24 24 24 25 25 26 27 27 26 27 29 30 31 31 31 31 28 22 20 20 19 19 20 20 21 23
31 31 32 31 31 31 30 29 28 27 26 26 26 25 25 25 25 24 24 24 24 25 27 28 27 27 28 31 32 32 33 33 28 23 21 20 19 19 18 19 20 21
Wind_Direction
194 195 196 198 201 203 204 204 204 205 207 209 210 210 208 206 204 206 207 207 208 209 211 211 211 214 215 217 221 223 229 231 232 232 229 231 235 238 242 242 241 248
193 194 195 197 200 202 204 205 206 207 208 211 214 212 208 205 202 201 204 206 208 209 209 209 210 213 215 217 221 223 225 228 231 231 229 231 234 238 243 243 241 241
192 194 194 197 200 201 203 205 206 208 210 211 214 214 209 205 201 199 200 203 207 210 209 209 211 213 215 216 218 223 225 227 230 230 229 231 233 237 242 243 243 238
192 194 195 198 201 201 202 204 205 207 209 211 211 212 211 206 200 198 199 200 204 209 209 210 211 212 213 214 216 221 225 227 229 228 229 231 231 235 239 241 244 242
191 193 196 198 200 201 201 203 205 205 208 210 208 208 209 205 198 197 198 199 201 205 207 208 210 210 210 212 215 219 223 226 226 225 228 230 229 231 234 236 239 241
191 193 195 197 198 199 200 202 204 205 206 208 207 206 205 203 200 199 198 198 199 202 205 206 207 209 209 209 213 218 222 226 226 223 224 227 230 231 232 232 234 237
190 191 193 195 197 198 199 201 202 205 206 206 206 204 204 203 201 201 199 198 199 201 203 205 205 207 208 209 212 216 220 225 226 223 223 226 229 232 235 233 231 234
189 190 191 194 196 197 199 200 201 203 205 205 205 203 202 203 202 203 202 199 199 200 201 203 204 205 207 208 210 214 217 221 224 223 222 224 228 231 233 234 232 234
188 189 191 193 196 198 200 201 201 202 203 204 205 204 203 203 203 203 203 201 201 200 199 201 202 203 206 207 209 212 216 220 222 223 223 224 227 229 230 231 232 233
188 190 192 194 197 200 202 203 203 202 202 203 204 205 204 204 204 204 204 202 202 201 198 199 201 202 204 207 209 212 215 219 222 223 224 225 227 230 230 231 232 232
189 191 194 195 198 201 202 203 204 203 203 203 204 205 204 203 203 204 204 203 204 203 199 198 200 200 203 206 209 212 215 218 221 222 224 226 227 230 230 231 232 232
190 192 195 196 198 201 202 202 203 203 203 203 204 205 205 203 202 203 205 204 204 203 200 199 200 200 202 205 209 213 215 217 220 221 223 224 226 228 229 230 231 233
191 193 195 196 198 200 202 202 203 204 203 203 203 204 204 204 202 202 204 205 204 204 202 200 200 201 203 205 209 213 215 217 220 221 222 223 225 226 228 229 231 232
192 193 194 196 197 199 201 202 203 203 203 202 201 203 205 205 203 201 202 205 205 204 202 200 200 202 203 204 207 211 215 218 219 221 223 223 224 226 228 230 232 233
191 192 192 193 195 196 199 201 202 202 202 201 200 201 204 206 206 203 202 205 206 205 204 202 201 203 204 204 204 208 213 217 219 221 223 225 226 227 228 231 234 236
189 190 190 191 192 194 197 199 200 200 201 201 199 200 203 206 207 207 205 205 206 206 205 205 205 206 206 205 204 205 210 215 219 221 224 225 226 228 229 231 234 238
187 188 188 190 191 192 193 196 198 198 199 200 199 199 201 204 206 208 209 207 206 207 208 208 210 210 208 207 207 207 208 212 218 220 222 225 226 226 228 230 234 238
185 186 187 188 189 189 190 192 195 197 197 198 199 198 199 201 204 206 209 210 208 209 211 212 213 213 210 210 210 212 211 211 215 220 221 223 225 225 226 229 232 237
183 184 185 186 187 187 187 188 191 194 196 196 197 198 197 199 203 204 207 210 210 211 212 214 216 214 212 212 213 216 216 213 213 219 221 223 224 224 226 228 230 234
182 183 184 185 185 185 185 187 189 192 195 195 195 197 197 199 202 204 205 208 210 212 213 216 219 217 214 214 216 218 219 217 215 218 222 224 224 224 226 227 229 231
183 183 183 183 182 183 184 186 189 191 193 194 195 197 197 198 201 204 205 207 209 212 213 216 220 220 216 215 217 219 221 220 219 220 225 227 226 225 227 229 229 231
183 182 183 182 181 182 184 186 188 190 192 193 196 198 199 199 202 204 206 207 208 211 215 217 221 222 220 217 218 220 220 220 220 222 226 229 228 227 228 229 231 231
183 182 182 182 181 182 185 186 188 189 191 193 196 199 201 201 203 205 207 208 208 210 214 218 220 222 222 220 219 218 217 217 217 219 224 228 229 228 228 229 231 231
184 184 183 182 183 184 186 187 188 189 190 193 196 200 203 203 204 207 209 210 211 211 212 215 220 223 222 221 220 217 215 215 214 215 222 226 227 228 228 229 232 233
185 185 184 184 185 186 187 187 187 188 189 193 197 201 205 206 205 208 210 211 212 213 212 214 219 223 222 220 220 219 217 214 212 213 219 224 226 228 226 228 232 235
186 186 186 187 186 185 186 186 186 188 189 192 198 202 205 208 208 210 212 213 214 214 214 214 217 222 222 220 219 219 218 214 210 210 216 221 224 226 226 228 231 233
Height
813 815 818 821 824 826 829 831 832 834 836 837 838 839 840 842 844 845 847 848 849 850 852 852 853 854 855 855 856 856 857 857 858 858 859 859 859 859 860 860 860 860
809 812 815 818 821 823 825 828 830 831 833 834 835 837 838 840 841 843 845 846 848 849 850 851 852 853 854 855 855 856 856 856 857 857 858 858 859 859 859 859 859 860
805 808 811 814 817 819 822 824 826 828 830 831 833 834 836 837 839 840 842 844 846 847 848 849 850 851 852 853 854 855 855 855 856 856 857 857 858 858 858 858 858 859
801 804 807 810 813 816 819 821 823 825 827 828 830 832 833 834 836 838 839 841 843 845 846 848 849 850 851 852 853 853 854 854 855 855 856 856 856 857 857 857 857 858
797 801 804 807 810 812 815 817 819 821 823 825 827 829 830 832 834 835 837 839 840 842 844 845 847 848 849 850 851 852 852 853 853 854 855 855 855 856 856 856 857 857
794 797 800 803 806 809 811 813 816 818 820 822 824 826 828 830 831 832 834 835 837 839 841 843 845 846 847 848 849 850 851 851 852 852 853 853 854 854 854 855 855 856
789 793 796 800 803 806 808 810 813 815 817 819 821 823 825 827 829 830 831 832 834 836 838 840 842 843 845 846 847 848 849 850 850 851 851 852 852 853 853 853 854 854
785 788 792 796 799 802 804 806 809 811 814 816 817 820 822 824 826 827 829 830 831 833 835 837 839 840 842 844 845 846 847 848 848 849 849 850 851 851 851 852 852 853
781 784 788 791 795 797 800 802 805 808 810 812 814 816 819 821 823 824 826 827 828 830 832 834 836 838 840 841 842 843 844 845 846 846 847 848 848 849 849 850 851 851
777 780 784 787 790 793 795 798 801 804 806 808 811 813 815 818 820 821 823 825 826 827 829 831 833 835 837 838 839 840 841 842 843 844 845 845 846 847 847 848 848 849
772 775 779 782 785 788 791 794 797 800 802 805 807 809 811 814 816 818 820 822 823 825 826 828 830 832 834 835 836 838 839 840 841 842 842 843 844 844 845 846 846 847
767 770 774 777 781 784 786 790 792 795 798 801 803 805 807 810 812 815 817 818 820 822 823 825 827 829 830 832 834 835 836 837 838 839 840 840 841 842 843 843 844 844
761 765 769 772 776 779 782 785 788 791 793 796 799 802 804 806 808 811 813 815 817 819 820 822 824 826 827 829 831 832 833 834 835 836 837 838 839 839 840 841 841 842
757 761 765 768 772 776 779 782 784 787 789 792 796 798 800 802 804 807 810 812 814 816 817 819 821 822 824 826 827 829 831 832 832 833 834 835 836 837 837 838 838 839
753 758 761 765 769 772 775 778 781 783 786 789 792 794 797 799 801 803 806 808 811 813 814 816 817 818 820 822 824 825 827 829 830 831 831 832 833 834 835 835 836 836
751 754 758 761 765 768 772 775 777 780 783 785 788 791 793 796 798 800 802 804 807 809 811 812 813 814 815 817 820 822 824 825 827 828 828 829 830 831 832 832 833 833
747 751 755 758 761 764 768 771 774 777 779 782 785 787 790 792 795 796 798 800 803 805 807 808 809 810 811 813 816 818 820 822 823 825 825 826 827 828 829 830 830 831
744 748 751 754 758 761 764 767 771 774 776 779 781 784 787 789 791 793 795 797 799 801 802 804 805 806 807 809 812 814 817 819 820 821 822 823 824 825 826 827 827 828
740 744 747 751 754 758 761 764 768 771 773 775 778 781 784 786 788 790 792 794 795 797 798 800 801 803 804 806 808 810 813 815 817 818 819 820 821 822 823 823 824 825
736 740 744 747 751 755 758 761 764 767 770 772 775 778 780 783 785 787 789 791 792 794 795 796 798 799 800 802 805 807 810 812 814 816 816 817 818 818 819 820 821 822
733 737 740 744 748 752 755 758 761 764 767 769 772 774 777 779 781 784 785 787 789 791 792 793 794 795 797 799 801 804 807 809 811 813 814 814 815 816 817 817 818 819
730 734 737 740 744 748 751 754 757 760 764 766 768 771 773 776 778 780 782 784 786 788 789 790 791 793 794 796 798 801 804 806 809 810 811 811 812 812 814 814 815 816
727 730 734 737 740 744 747 750 753 757 760 763 766 767 770 772 774 776 778 780 782 784 785 787 788 790 791 793 795 798 801 803 805 807 808 808 809 809 810 811 812 813
723 726 730 733 736 739 742 746 750 753 757 760 762 764 766 768 771 772 774 776 778 780 781 783 785 786 788 790 792 794 797 800 802 804 805 805 806 806 807 808 808 809
720 723 726 729 732 735 738 742 746 749 753 756 758 760 762 764 767 769 771 772 774 776 777 779 781 782 784 786 788 790 793 796 799 801 802 802 803 803 804 804 805 805
717 720 723 726 729 732 735 739 742 746 749 752 754 757 759 761 763 765 767 768 770 772 773 775 777 778 780 781 784 786 789 792 795 797 798 799 800 800 801 801 801 802